Location: Unspecified
(42.9300°N, 71.1866°W)
Time: 11:21:07
(UTC-05:00)

GENESIS II - Visible Passes

Search period start: 23 February 2017 00:00
Search period end: 05 March 2017 00:00
Orbit: 490 x 546 km, 64.5° (Epoch: 22 February)

Date Brightness Start Highest point End Pass type
(mag) Time Alt. Az. Time Alt. Az. Time Alt. Az.
26 Feb 7.1 20:14:27 10° NNW 20:14:52 12° NNW 20:14:52 12° NNW visible
27 Feb 6.6 19:59:30 10° NNW 20:00:36 17° N 20:00:36 17° N visible
28 Feb 6.1 19:44:32 10° NNW 19:46:24 23° N 19:46:24 23° N visible
01 Mar 5.4 19:29:34 10° NNW 19:32:16 31° NNE 19:32:16 31° NNE visible
02 Mar 4.9 19:14:36 10° NNW 19:18:12 38° NE 19:18:12 38° NE visible
02 Mar 7.5 20:52:55 10° WNW 20:53:17 12° WNW 20:53:17 12° WNW visible
03 Mar 4.8 18:59:38 10° NNW 19:03:26 40° NE 19:04:15 35° E visible
03 Mar 7.1 20:38:01 10° WNW 20:39:20 16° W 20:39:20 16° W visible
04 Mar 4.7 18:44:39 10° NNW 18:48:29 42° NE 18:50:25 24° ESE visible
04 Mar 6.7 20:23:08 10° WNW 20:25:30 18° WSW 20:25:30 18° WSW visible
